Provincetown, Massachusetts, United States (02657)
Lat: 42.06N, Lon: 70.18W
Wx Zone: MAZ022
Local Info
Past Weather Observations for Today

NOTE: This archive is for the closest National Weather Service station to Provincetown. Information may differ from the station used for current weather conditions.

Click here for Long-term Archive

Time Weather Temperature Dewpoint Humidity Pressure Winds Precip Visibility
07:35
Partly Cloudy
72°F / 22°C 68°F / 20°C 88% 29.8 in
(1009 mb)
Calm - 10SM
07:15
Clear
70°F / 21°C 68°F / 20°C 94% 29.77 in
(1008 mb)
N 4.6 mph
(N 7 kph)
- 10SM
06:55
Clear
70°F / 21°C 68°F / 20°C 94% 29.77 in
(1008 mb)
NNE 4.6 mph
(NNE 7 kph)
- 10SM
06:35
Partly Cloudy
70°F / 21°C 68°F / 20°C 94% 29.77 in
(1008 mb)
N 3.5 mph
(N 6 kph)
- 10SM
06:15
Partly Cloudy
68°F / 20°C 66°F / 19°C 94% 29.77 in
(1008 mb)
N 3.5 mph
(N 6 kph)
- 10SM
05:55
Partly Cloudy
68°F / 20°C 66°F / 19°C 94% 29.77 in
(1008 mb)
Calm - 10SM
05:35
Partly Cloudy
68°F / 20°C 66°F / 19°C 94% 29.77 in
(1008 mb)
NW 3.5 mph
(NW 6 kph)
- 10SM
05:15
Partly Cloudy
66°F / 19°C 64°F / 18°C 94% 29.77 in
(1008 mb)
W 5.8 mph
(W 9 kph)
- 10SM
04:55
Partly Cloudy
66°F / 19°C 66°F / 19°C 100% 29.77 in
(1008 mb)
W 4.6 mph
(W 7 kph)
- 10SM
04:35
Partly Cloudy
66°F / 19°C 66°F / 19°C 100% 29.77 in
(1008 mb)
SSW 4.6 mph
(SSW 7 kph)
- 10SM
04:15
Partly Cloudy
66°F / 19°C 66°F / 19°C 100% 29.77 in
(1008 mb)
SSW 4.6 mph
(SSW 7 kph)
- 10SM
03:55
Partly Cloudy
66°F / 19°C 64°F / 18°C 94% 29.74 in
(1007 mb)
SSW 3.5 mph
(SSW 6 kph)
- 10SM
03:35
Mostly Cloudy
66°F / 19°C 66°F / 19°C 100% 29.74 in
(1007 mb)
SSW 5.8 mph
(SSW 9 kph)
- 10SM
03:15
Mostly Cloudy
68°F / 20°C 68°F / 20°C 100% 29.74 in
(1007 mb)
SSW 6.9 mph
(SSW 11 kph)
- 10SM
02:55
Clear
68°F / 20°C 66°F / 19°C 94% 29.74 in
(1007 mb)
SSW 8.1 mph
(SSW 13 kph)
- 10SM
02:35
Clear
66°F / 19°C 64°F / 18°C 94% 29.74 in
(1007 mb)
SSW 5.8 mph
(SSW 9 kph)
- 10SM
02:15
Clear
66°F / 19°C 64°F / 18°C 94% 29.74 in
(1007 mb)
SW 4.6 mph
(SW 7 kph)
- 10SM
01:55
Clear
66°F / 19°C 66°F / 19°C 100% 29.74 in
(1007 mb)
SSW 6.9 mph
(SSW 11 kph)
- 10SM
01:35
Clear
68°F / 20°C 66°F / 19°C 94% 29.77 in
(1008 mb)
SSW 10.4 mph
(SSW 17 kph)
- 10SM
01:15
Clear
70°F / 21°C 70°F / 21°C 100% 29.77 in
(1008 mb)
SW 9.2 mph
(SW 15 kph)
- 10SM
00:55
Clear
70°F / 21°C 70°F / 21°C 100% 29.74 in
(1007 mb)
SW 10.4 mph
(SW 17 kph)
- 10SM
00:35
Clear
70°F / 21°C 70°F / 21°C 100% 29.74 in
(1007 mb)
S 6.9 mph
(S 11 kph)
- 10SM
00:15
Clear
70°F / 21°C 70°F / 21°C 100% 29.77 in
(1008 mb)
SSE 8.1 mph
(SSE 13 kph)
- 10SM
Time Weather Temperature Dewpoint Humidity Pressure Winds Precip Visibility


Weather for websites

WeatherForYou.com, LLC is not responsible for any damages or problems caused by this service. Current weather conditions are obtained from the closest station including government and personal stations which may have varying degrees of accuracy. Weather forecasts are derived from the NOAA NDFD. Like all things, this site belongs to Jesus Christ... He just trusts me to maintain it. If you have any questions or comments email webmaster@weatherforyou.com

Copyright © 2014, WeatherForYou.com LLC. All rights reserved.